| time (UTC) | temp C | wind direction | speed KPH | gust KPH | rain 1hr cm | rain 24hr cm | rain mn cm | humidity % | barometer mb |
| 20260902212019 | 27 | 285 | 4.8 | 17.7 | 0.00 | 0.00 | 0.00 | 20 | 1015.9 |
| 20260902211520 | 27 | 229 | 3.2 | 12.9 | 0.00 | 0.00 | 0.00 | 18 | 1016.0 |
| 20260902211019 | 27 | 273 | 3.2 | 9.7 | 0.00 | 0.00 | 0.00 | 19 | 1016.0 |
| 20260902210520 | 27 | 279 | 6.4 | 22.5 | 0.00 | 0.00 | 0.00 | 20 | 1016.0 |
| 20260902210019 | 27 | 279 | 6.4 | 25.7 | 0.00 | 0.00 | 0.00 | 18 | 1016.1 |
| 20260902205519 | 27 | 260 | 3.2 | 14.5 | 0.00 | 0.00 | 0.00 | 18 | 1016.3 |
| 20260902205019 | 27 | 311 | 3.2 | 8.0 | 0.00 | 0.00 | 0.00 | 22 | 1016.2 |
| 20260902204519 | 26 | 210 | 4.8 | 12.9 | 0.00 | 0.00 | 0.00 | 22 | 1016.1 |
| 20260902204019 | 26 | 213 | 4.8 | 12.9 | 0.00 | 0.00 | 0.00 | 21 | 1016.1 |
| 20260902203519 | 26 | 237 | 4.8 | 17.7 | 0.00 | 0.00 | 0.00 | 22 | 1016.1 |
| 20260902203019 | 26 | 281 | 3.2 | 12.9 | 0.00 | 0.00 | 0.00 | 21 | 1016.2 |
| 20260902202519 | 26 | 274 | 3.2 | 11.3 | 0.00 | 0.00 | 0.00 | 24 | 1016.4 |
| 20260902202019 | 26 | 281 | 3.2 | 12.9 | 0.00 | 0.00 | 0.00 | 26 | 1016.2 |
| 20260902201519 | 26 | 300 | 3.2 | 12.9 | 0.00 | 0.00 | 0.00 | 25 | 1016.5 |
| 20260902201019 | 26 | 250 | 4.8 | 9.7 | 0.00 | 0.00 | 0.00 | 25 | 1016.1 |
| 20260902200519 | 26 | 220 | 6.4 | 16.1 | 0.00 | 0.00 | 0.00 | 26 | 1016.2 |
| 20260902200019 | 26 | 273 | 6.4 | 17.7 | 0.00 | 0.00 | 0.00 | 25 | 1016.5 |
| 20260902195519 | 26 | 271 | 6.4 | 16.1 | 0.00 | 0.00 | 0.00 | 26 | 1016.3 |
| 20260902195020 | 26 | 279 | 4.8 | 20.9 | 0.00 | 0.00 | 0.00 | 25 | 1016.5 |
| 20260902194519 | 26 | 277 | 4.8 | 20.9 | 0.00 | 0.00 | 0.00 | 25 | 1016.4 |
| 20260902194020 | 26 | 183 | 4.8 | 11.3 | 0.00 | 0.00 | 0.00 | 27 | 1016.5 |
| 20260902193520 | 26 | 204 | 4.8 | 14.5 | 0.00 | 0.00 | 0.00 | 27 | 1016.4 |
| 20260902193020 | 26 | 237 | 3.2 | 9.7 | 0.00 | 0.00 | 0.00 | 27 | 1016.6 |
| 20260902192520 | 26 | 246 | 4.8 | 12.9 | 0.00 | 0.00 | 0.00 | 27 | 1016.6 |
| 20260902192020 | 26 | 234 | 4.8 | 12.9 | 0.00 | 0.00 | 0.00 | 26 | 1016.4 |
| 20260902191520 | 26 | 182 | 3.2 | 11.3 | 0.00 | 0.00 | 0.00 | 26 | 1016.5 |
| 20260902191020 | 26 | 247 | 3.2 | 14.5 | 0.00 | 0.00 | 0.00 | 27 | 1016.8 |
| 20260902190520 | 26 | 276 | 3.2 | 25.7 | 0.00 | 0.00 | 0.00 | 27 | 1016.7 |
| 20260902190020 | 25 | 259 | 3.2 | 9.7 | 0.00 | 0.00 | 0.00 | 30 | 1017.0 |
| 20260902185520 | 25 | 258 | 4.8 | 16.1 | 0.00 | 0.00 | 0.00 | 29 | 1016.9 |
| 20260902185020 | 25 | 246 | 4.8 | 19.3 | 0.00 | 0.00 | 0.00 | 29 | 1017.0 |
| 20260902184520 | 25 | 263 | 4.8 | 17.7 | 0.00 | 0.00 | 0.00 | 29 | 1017.0 |
| 20260902184020 | 25 | 177 | 3.2 | 9.7 | 0.00 | 0.00 | 0.00 | 30 | 1017.0 |
| 20260902183520 | 25 | 269 | 3.2 | 14.5 | 0.00 | 0.00 | 0.00 | 30 | 1017.1 |
| 20260902183020 | 25 | 275 | 4.8 | 14.5 | 0.00 | 0.00 | 0.00 | 30 | 1017.2 |
| 20260902182520 | 25 | 279 | 6.4 | 17.7 | 0.00 | 0.00 | 0.00 | 31 | 1017.4 |
| 20260902182020 | 25 | 273 | 6.4 | 27.4 | 0.00 | 0.00 | 0.00 | 30 | 1017.4 |
| 20260902181520 | 25 | 236 | 4.8 | 11.3 | 0.00 | 0.00 | 0.00 | 31 | 1017.4 |
| 20260902181020 | 25 | 239 | 4.8 | 11.3 | 0.00 | 0.00 | 0.00 | 32 | 1017.3 |
| 20260902180520 | 24 | 217 | 6.4 | 20.9 | 0.00 | 0.00 | 0.00 | 31 | 1017.5 |
| 20260902180020 | 24 | 217 | 4.8 | 19.3 | 0.00 | 0.00 | 0.00 | 31 | 1017.5 |
| 20260902175520 | 24 | 228 | 4.8 | 16.1 | 0.00 | 0.00 | 0.00 | 32 | 1017.7 |
| 20260902175020 | 24 | 254 | 4.8 | 20.9 | 0.00 | 0.00 | 0.00 | 32 | 1017.8 |
| 20260902174520 | 24 | 254 | 4.8 | 20.9 | 0.00 | 0.00 | 0.00 | 32 | 1017.7 |
| 20260902174020 | 24 | 262 | 4.8 | 11.3 | 0.00 | 0.00 | 0.00 | 34 | 1017.6 |
| 20260902173520 | 24 | 230 | 3.2 | 12.9 | 0.00 | 0.00 | 0.00 | 35 | 1017.9 |
| 20260902173020 | 24 | 193 | 4.8 | 16.1 | 0.00 | 0.00 | 0.00 | 36 | 1017.8 |
| 20260902172520 | 23 | 178 | 6.4 | 19.3 | 0.00 | 0.00 | 0.00 | 36 | 1017.8 |
| 20260902172020 | 23 | 262 | 6.4 | 19.3 | 0.00 | 0.00 | 0.00 | 37 | 1018.0 |
| 20260902171520 | 23 | 263 | 4.8 | 12.9 | 0.00 | 0.00 | 0.00 | 35 | 1018.1 |
| 20260902171020 | 23 | 236 | 4.8 | 22.5 | 0.00 | 0.00 | 0.00 | 36 | 1018.0 |
| 20260902170520 | 23 | 272 | 4.8 | 16.1 | 0.00 | 0.00 | 0.00 | 37 | 1018.0 |
| 20260902170020 | 23 | 250 | 4.8 | 22.5 | 0.00 | 0.00 | 0.00 | 36 | 1018.2 |
| 20260902165520 | 23 | 257 | 4.8 | 14.5 | 0.00 | 0.00 | 0.00 | 34 | 1018.2 |
| 20260902165020 | 23 | 252 | 4.8 | 12.9 | 0.00 | 0.00 | 0.00 | 37 | 1018.1 |
| 20260902164520 | 23 | 269 | 4.8 | 14.5 | 0.00 | 0.00 | 0.00 | 35 | 1018.1 |
| 20260902164020 | 23 | 271 | 4.8 | 22.5 | 0.00 | 0.00 | 0.00 | 36 | 1018.2 |
| 20260902163520 | 23 | 246 | 6.4 | 16.1 | 0.00 | 0.00 | 0.00 | 37 | 1018.0 |
| 20260902163020 | 23 | 262 | 6.4 | 24.1 | 0.00 | 0.00 | 0.00 | 37 | 1018.0 |
| 20260902162520 | 23 | 258 | 4.8 | 14.5 | 0.00 | 0.00 | 0.00 | 37 | 1018.2 |
| 20260902162020 | 22 | 212 | 3.2 | 14.5 | 0.00 | 0.00 | 0.00 | 38 | 1018.1 |
| 20260902161520 | 22 | 244 | 3.2 | 8.0 | 0.00 | 0.00 | 0.00 | 39 | 1018.0 |
| 20260902161020 | 22 | 250 | 1.6 | 11.3 | 0.00 | 0.00 | 0.00 | 40 | 1018.0 |
| 20260902160520 | 22 | 232 | 1.6 | 8.0 | 0.00 | 0.00 | 0.00 | 39 | 1018.0 |
| 20260902160020 | 22 | 229 | 1.6 | 11.3 | 0.00 | 0.00 | 0.00 | 41 | 1018.1 |
| 20260902155520 | 22 | 271 | 0.0 | 4.8 | 0.00 | 0.00 | 0.00 | 44 | 1017.9 |
| 20260902155020 | 22 | 271 | 0.0 | 6.4 | 0.00 | 0.00 | 0.00 | 45 | 1017.9 |
| 20260902154520 | 21 | 271 | 0.0 | 3.2 | 0.00 | 0.00 | 0.00 | 45 | 1018.0 |
| 20260902154020 | 21 | 271 | 1.6 | 8.0 | 0.00 | 0.00 | 0.00 | 44 | 1018.0 |
| 20260902153520 | 22 | 274 | 1.6 | 9.7 | 0.00 | 0.00 | 0.00 | 42 | 1018.2 |
| 20260902153020 | 22 | 276 | 1.6 | 6.4 | 0.00 | 0.00 | 0.00 | 42 | 1018.1 |
| 20260902152520 | 22 | 275 | 1.6 | 14.5 | 0.00 | 0.00 | 0.00 | 41 | 1018.2 |
| 20260902152020 | 21 | 229 | 1.6 | 12.9 | 0.00 | 0.00 | 0.00 | 42 | 1018.2 |
| 20260902151520 | 21 | 236 | 1.6 | 6.4 | 0.00 | 0.00 | 0.00 | 42 | 1018.2 |
| 20260902151020 | 21 | 231 | 3.2 | 8.0 | 0.00 | 0.00 | 0.00 | 41 | 1018.2 |
| 20260902150520 | 21 | 236 | 1.6 | 12.9 | 0.00 | 0.00 | 0.00 | 43 | 1018.2 |
| 20260902150020 | 21 | 280 | 1.6 | 11.3 | 0.00 | 0.00 | 0.00 | 44 | 1018.2 |
| 20260902145520 | 20 | 168 | 0.0 | 0.0 | 0.00 | 0.00 | 0.00 | 46 | 1018.1 |
| 20260902145020 | 20 | 168 | 0.0 | 0.0 | 0.00 | 0.00 | 0.00 | 47 | 1018.1 |
| 20260902144520 | 20 | 168 | 1.6 | 8.0 | 0.00 | 0.00 | 0.00 | 47 | 1018.1 |
| 20260902144020 | 20 | 174 | 1.6 | 12.9 | 0.00 | 0.00 | 0.00 | 47 | 1017.9 |
| 20260902143520 | 20 | 236 | 0.0 | 4.8 | 0.00 | 0.00 | 0.00 | 49 | 1017.9 |
| 20260902143020 | 20 | 227 | 0.0 | 0.0 | 0.00 | 0.00 | 0.00 | 53 | 1017.9 |
| 20260902142520 | 20 | 227 | 0.0 | 4.8 | 0.00 | 0.00 | 0.00 | 53 | 1018.0 |
| 20260902142020 | 20 | 228 | 0.0 | 8.0 | 0.00 | 0.00 | 0.00 | 53 | 1018.0 |
| 20260902141520 | 20 | 232 | 0.0 | 0.0 | 0.00 | 0.00 | 0.00 | 52 | 1017.9 |
| 20260902141020 | 19 | 232 | 0.0 | 6.4 | 0.00 | 0.00 | 0.00 | 49 | 1018.0 |
| 20260902140520 | 18 | 232 | 0.0 | 0.0 | 0.00 | 0.00 | 0.00 | 51 | 1018.0 |
| 20260902140020 | 18 | 232 | 0.0 | 0.0 | 0.00 | 0.00 | 0.00 | 53 | 1018.1 |
| 20260902135520 | 17 | 232 | 0.0 | 3.2 | 0.00 | 0.00 | 0.00 | 54 | 1018.1 |
| 20260902135020 | 17 | 232 | 0.0 | 4.8 | 0.00 | 0.00 | 0.00 | 55 | 1018.0 |
| 20260902134520 | 16 | 232 | 0.0 | 0.0 | 0.00 | 0.00 | 0.00 | 56 | 1018.0 |
| 20260902134020 | 16 | 232 | 0.0 | 0.0 | 0.00 | 0.00 | 0.00 | 56 | 1018.0 |
| 20260902133520 | 16 | 232 | 0.0 | 0.0 | 0.00 | 0.00 | 0.00 | 58 | 1018.0 |
| 20260902133020 | 16 | 232 | 0.0 | 0.0 | 0.00 | 0.00 | 0.00 | 58 | 1018.0 |
| 20260902132520 | 16 | 232 | 0.0 | 0.0 | 0.00 | 0.00 | 0.00 | 60 | 1018.1 |
| 20260902132020 | 16 | 232 | 0.0 | 0.0 | 0.00 | 0.00 | 0.00 | 59 | 1018.1 |
| 20260902131521 | 16 | 232 | 0.0 | 0.0 | 0.00 | 0.00 | 0.00 | 59 | 1018.1 |
| 20260902131020 | 16 | 232 | 0.0 | 0.0 | 0.00 | 0.00 | 0.00 | 60 | 1018.1 |
| 20260902130520 | 16 | 232 | 0.0 | 0.0 | 0.00 | 0.00 | 0.00 | 61 | 1018.0 |
| 20260902130020 | 16 | 232 | 0.0 | 0.0 | 0.00 | 0.00 | 0.00 | 62 | 1018.0 |
| 20260902125520 | 16 | 232 | 0.0 | 0.0 | 0.00 | 0.00 | 0.00 | 62 | 1017.9 |
| 20260902125020 | 16 | 232 | 0.0 | 0.0 | 0.00 | 0.00 | 0.00 | 61 | 1018.0 |
| 20260902124520 | 16 | 232 | 0.0 | 0.0 | 0.00 | 0.00 | 0.00 | 60 | 1018.0 |
| 20260902124020 | 16 | 232 | 0.0 | 0.0 | 0.00 | 0.00 | 0.00 | 58 | 1017.9 |
| 20260902123520 | 17 | 232 | 0.0 | 0.0 | 0.00 | 0.00 | 0.00 | 58 | 1017.9 |
| 20260902123020 | 17 | 232 | 0.0 | 0.0 | 0.00 | 0.00 | 0.00 | 57 | 1018.0 |
| 20260902122520 | 17 | 232 | 0.0 | 0.0 | 0.00 | 0.00 | 0.00 | 55 | 1017.8 |
| 20260902122020 | 17 | 232 | 0.0 | 0.0 | 0.00 | 0.00 | 0.00 | 54 | 1017.8 |
| 20260902121520 | 17 | 232 | 0.0 | 0.0 | 0.00 | 0.00 | 0.00 | 54 | 1017.8 |
| 20260902121020 | 18 | 232 | 0.0 | 0.0 | 0.00 | 0.00 | 0.00 | 52 | 1017.8 |
| 20260902120520 | 18 | 232 | 0.0 | 0.0 | 0.00 | 0.00 | 0.00 | 52 | 1017.8 |
| 20260902120020 | 18 | 232 | 0.0 | 0.0 | 0.00 | 0.00 | 0.00 | 52 | 1017.9 |
| 20260902115520 | 18 | 232 | 0.0 | 0.0 | 0.00 | 0.00 | 0.00 | 52 | 1017.9 |
| 20260902115020 | 18 | 232 | 0.0 | 0.0 | 0.00 | 0.00 | 0.00 | 52 | 1017.8 |
| 20260902114520 | 18 | 232 | 0.0 | 0.0 | 0.00 | 0.00 | 0.00 | 51 | 1017.8 |
| 20260902114020 | 18 | 232 | 0.0 | 0.0 | 0.00 | 0.00 | 0.00 | 51 | 1017.8 |
| 20260902113520 | 18 | 232 | 0.0 | 0.0 | 0.00 | 0.00 | 0.00 | 51 | 1017.8 |
| 20260902113020 | 18 | 232 | 0.0 | 0.0 | 0.00 | 0.00 | 0.00 | 50 | 1017.8 |
| 20260902112520 | 18 | 232 | 0.0 | 0.0 | 0.00 | 0.00 | 0.00 | 50 | 1017.7 |
| 20260902112020 | 18 | 232 | 0.0 | 0.0 | 0.00 | 0.00 | 0.00 | 50 | 1017.8 |
| 20260902111520 | 18 | 232 | 0.0 | 0.0 | 0.00 | 0.00 | 0.00 | 50 | 1017.8 |
| 20260902111020 | 18 | 232 | 0.0 | 0.0 | 0.00 | 0.00 | 0.00 | 50 | 1017.8 |
| 20260902110520 | 18 | 232 | 0.0 | 0.0 | 0.00 | 0.00 | 0.00 | 50 | 1017.8 |
| 20260902110020 | 18 | 232 | 0.0 | 0.0 | 0.00 | 0.00 | 0.00 | 49 | 1017.7 |
| 20260902105520 | 18 | 232 | 0.0 | 0.0 | 0.00 | 0.00 | 0.00 | 49 | 1017.7 |
| 20260902105020 | 18 | 232 | 0.0 | 0.0 | 0.00 | 0.00 | 0.00 | 49 | 1017.6 |
| 20260902104520 | 18 | 232 | 0.0 | 0.0 | 0.00 | 0.00 | 0.00 | 50 | 1017.7 |
| 20260902104020 | 18 | 232 | 0.0 | 0.0 | 0.00 | 0.00 | 0.00 | 50 | 1017.7 |
| 20260902103522 | 18 | 232 | 0.0 | 0.0 | 0.00 | 0.00 | 0.00 | 50 | 1017.6 |
| 20260902103020 | 18 | 232 | 0.0 | 0.0 | 0.00 | 0.00 | 0.00 | 50 | 1017.7 |
| 20260902102520 | 18 | 232 | 0.0 | 0.0 | 0.00 | 0.00 | 0.00 | 51 | 1017.7 |
| 20260902102020 | 18 | 232 | 0.0 | 0.0 | 0.00 | 0.00 | 0.00 | 51 | 1017.7 |
| 20260902101520 | 18 | 232 | 0.0 | 1.6 | 0.00 | 0.00 | 0.00 | 51 | 1017.7 |
| 20260902101020 | 18 | 232 | 0.0 | 0.0 | 0.00 | 0.00 | 0.00 | 51 | 1017.8 |
| 20260902100520 | 18 | 232 | 0.0 | 0.0 | 0.00 | 0.00 | 0.00 | 51 | 1017.8 |
| 20260902100020 | 18 | 232 | 0.0 | 0.0 | 0.00 | 0.00 | 0.00 | 51 | 1017.8 |
| 20260902095520 | 18 | 232 | 0.0 | 3.2 | 0.00 | 0.00 | 0.00 | 51 | 1017.8 |
| 20260902095020 | 18 | 232 | 0.0 | 0.0 | 0.00 | 0.00 | 0.00 | 50 | 1017.9 |
| 20260902094520 | 18 | 232 | 0.0 | 1.6 | 0.00 | 0.00 | 0.00 | 50 | 1017.9 |
| 20260902094020 | 18 | 232 | 0.0 | 0.0 | 0.00 | 0.00 | 0.00 | 50 | 1017.9 |
| 20260902093520 | 18 | 232 | 0.0 | 0.0 | 0.00 | 0.00 | 0.00 | 49 | 1017.9 |
| 20260902093021 | 18 | 232 | 0.0 | 0.0 | 0.00 | 0.00 | 0.00 | 48 | 1017.9 |
| 20260902092520 | 18 | 232 | 0.0 | 0.0 | 0.00 | 0.00 | 0.00 | 47 | 1017.9 |
| 20260902092020 | 18 | 232 | 0.0 | 0.0 | 0.00 | 0.00 | 0.00 | 46 | 1018.0 |
| 20260902091520 | 18 | 232 | 0.0 | 0.0 | 0.00 | 0.00 | 0.00 | 46 | 1018.1 |
| 20260902091020 | 18 | 232 | 0.0 | 0.0 | 0.00 | 0.00 | 0.00 | 46 | 1018.1 |
| 20260902090520 | 18 | 232 | 0.0 | 0.0 | 0.00 | 0.00 | 0.00 | 46 | 1018.2 |
| 20260902090020 | 18 | 232 | 0.0 | 3.2 | 0.00 | 0.00 | 0.00 | 46 | 1018.2 |
| 20260902085520 | 18 | 232 | 0.0 | 0.0 | 0.00 | 0.00 | 0.00 | 46 | 1018.2 |
| 20260902085020 | 18 | 232 | 0.0 | 0.0 | 0.00 | 0.00 | 0.00 | 45 | 1018.2 |
| 20260902084520 | 19 | 232 | 0.0 | 1.6 | 0.00 | 0.00 | 0.00 | 45 | 1018.2 |
| 20260902084020 | 19 | 232 | 0.0 | 0.0 | 0.00 | 0.00 | 0.00 | 45 | 1018.2 |
| 20260902083520 | 19 | 232 | 0.0 | 0.0 | 0.00 | 0.00 | 0.00 | 44 | 1018.3 |
| 20260902083020 | 19 | 232 | 0.0 | 0.0 | 0.00 | 0.00 | 0.00 | 44 | 1018.1 |
| 20260902082521 | 19 | 232 | 0.0 | 0.0 | 0.00 | 0.00 | 0.00 | 44 | 1018.3 |
| 20260902082021 | 19 | 232 | 0.0 | 0.0 | 0.00 | 0.00 | 0.00 | 44 | 1018.3 |
| 20260902081521 | 19 | 232 | 0.0 | 3.2 | 0.00 | 0.00 | 0.00 | 44 | 1018.2 |
| 20260902081021 | 19 | 232 | 0.0 | 0.0 | 0.00 | 0.00 | 0.00 | 44 | 1018.2 |
| 20260902080521 | 19 | 232 | 0.0 | 0.0 | 0.00 | 0.00 | 0.00 | 45 | 1018.2 |
| 20260902080021 | 19 | 232 | 0.0 | 0.0 | 0.00 | 0.00 | 0.00 | 45 | 1018.3 |
| 20260902075520 | 18 | 232 | 0.0 | 0.0 | 0.00 | 0.00 | 0.00 | 45 | 1018.2 |
| 20260902075021 | 18 | 232 | 0.0 | 0.0 | 0.00 | 0.00 | 0.00 | 46 | 1018.3 |
| 20260902074521 | 18 | 232 | 0.0 | 0.0 | 0.00 | 0.00 | 0.00 | 46 | 1018.3 |
| 20260902074021 | 18 | 232 | 0.0 | 0.0 | 0.00 | 0.00 | 0.00 | 46 | 1018.2 |
| 20260902073521 | 18 | 232 | 0.0 | 0.0 | 0.00 | 0.00 | 0.00 | 46 | 1018.2 |
| 20260902073021 | 18 | 232 | 0.0 | 0.0 | 0.00 | 0.00 | 0.00 | 46 | 1018.2 |
| 20260902072521 | 18 | 232 | 0.0 | 0.0 | 0.00 | 0.00 | 0.00 | 46 | 1018.2 |
| 20260902072021 | 19 | 232 | 0.0 | 0.0 | 0.00 | 0.00 | 0.00 | 46 | 1018.1 |
| 20260902071521 | 19 | 232 | 0.0 | 0.0 | 0.00 | 0.00 | 0.00 | 46 | 1018.1 |
| 20260902071021 | 19 | 232 | 0.0 | 1.6 | 0.00 | 0.00 | 0.00 | 46 | 1018.0 |
| 20260902070521 | 19 | 232 | 0.0 | 0.0 | 0.00 | 0.00 | 0.00 | 45 | 1018.1 |
| 20260902070021 | 19 | 232 | 0.0 | 0.0 | 0.00 | 0.00 | 0.00 | 45 | 1018.1 |
| 20260902065521 | 19 | 232 | 0.0 | 3.2 | 0.00 | 0.00 | 0.00 | 44 | 1018.1 |
| 20260902065021 | 19 | 232 | 0.0 | 6.4 | 0.00 | 0.00 | 0.00 | 44 | 1018.2 |
| 20260902064521 | 19 | 234 | 0.0 | 0.0 | 0.00 | 0.00 | 0.00 | 43 | 1018.2 |
| 20260902064021 | 19 | 234 | 0.0 | 0.0 | 0.00 | 0.00 | 0.00 | 43 | 1018.1 |
| 20260902063521 | 20 | 234 | 0.0 | 0.0 | 0.00 | 0.00 | 0.00 | 43 | 1018.1 |
| 20260902063021 | 20 | 234 | 0.0 | 3.2 | 0.00 | 0.00 | 0.00 | 43 | 1018.1 |
| 20260902062521 | 20 | 232 | 0.0 | 0.0 | 0.00 | 0.00 | 0.00 | 44 | 1018.1 |
| 20260902062021 | 20 | 232 | 0.0 | 0.0 | 0.00 | 0.00 | 0.00 | 44 | 1018.1 |
| 20260902061521 | 20 | 232 | 0.0 | 0.0 | 0.00 | 0.00 | 0.00 | 46 | 1018.1 |
| 20260902061021 | 20 | 232 | 0.0 | 0.0 | 0.00 | 0.00 | 0.00 | 46 | 1018.2 |
| 20260902060521 | 20 | 232 | 0.0 | 0.0 | 0.00 | 0.00 | 0.00 | 46 | 1018.2 |
| 20260902060021 | 20 | 232 | 0.0 | 0.0 | 0.00 | 0.00 | 0.00 | 46 | 1018.2 |
| 20260902055521 | 20 | 232 | 0.0 | 0.0 | 0.00 | 0.00 | 0.00 | 47 | 1018.1 |
| 20260902055021 | 20 | 232 | 0.0 | 0.0 | 0.00 | 0.00 | 0.00 | 47 | 1018.1 |
| 20260902054521 | 20 | 232 | 0.0 | 0.0 | 0.00 | 0.00 | 0.00 | 45 | 1018.1 |
| 20260902054021 | 20 | 232 | 0.0 | 0.0 | 0.00 | 0.00 | 0.00 | 44 | 1018.1 |
| 20260902053521 | 20 | 232 | 0.0 | 0.0 | 0.00 | 0.00 | 0.00 | 44 | 1018.1 |
| 20260902053021 | 20 | 232 | 0.0 | 0.0 | 0.00 | 0.00 | 0.00 | 45 | 1018.2 |
| 20260902052521 | 20 | 232 | 0.0 | 1.6 | 0.00 | 0.00 | 0.00 | 46 | 1018.1 |
| 20260902052021 | 20 | 231 | 0.0 | 4.8 | 0.00 | 0.00 | 0.00 | 46 | 1018.2 |
| 20260902051521 | 20 | 225 | 0.0 | 0.0 | 0.00 | 0.00 | 0.00 | 47 | 1018.2 |
| 20260902051021 | 20 | 225 | 0.0 | 1.6 | 0.00 | 0.00 | 0.00 | 47 | 1018.2 |
| 20260902050521 | 20 | 225 | 0.0 | 4.8 | 0.00 | 0.00 | 0.00 | 48 | 1018.2 |
| 20260902050021 | 20 | 225 | 0.0 | 6.4 | 0.00 | 0.00 | 0.00 | 48 | 1018.3 |
| 20260902045521 | 21 | 219 | 0.0 | 0.0 | 0.00 | 0.00 | 0.00 | 48 | 1018.3 |
| 20260902045021 | 21 | 219 | 0.0 | 0.0 | 0.00 | 0.00 | 0.00 | 47 | 1018.4 |
| 20260902044521 | 21 | 219 | 0.0 | 0.0 | 0.00 | 0.00 | 0.00 | 47 | 1018.5 |
| 20260902044021 | 21 | 219 | 0.0 | 0.0 | 0.00 | 0.00 | 0.00 | 47 | 1018.4 |
| 20260902043521 | 21 | 219 | 0.0 | 4.8 | 0.00 | 0.00 | 0.00 | 47 | 1018.4 |
| 20260902043021 | 21 | 218 | 0.0 | 6.4 | 0.00 | 0.00 | 0.00 | 47 | 1018.4 |
| 20260902042521 | 21 | 217 | 0.0 | 0.0 | 0.00 | 0.00 | 0.00 | 47 | 1018.3 |
| 20260902042021 | 21 | 213 | 0.0 | 3.2 | 0.00 | 0.00 | 0.00 | 47 | 1018.3 |
| 20260902041521 | 21 | 212 | 0.0 | 1.6 | 0.00 | 0.00 | 0.00 | 47 | 1018.3 |
| 20260902041021 | 21 | 213 | 0.0 | 1.6 | 0.00 | 0.00 | 0.00 | 47 | 1018.3 |
| 20260902040521 | 21 | 213 | 0.0 | 1.6 | 0.00 | 0.00 | 0.00 | 47 | 1018.3 |
| 20260902040021 | 21 | 209 | 0.0 | 8.0 | 0.00 | 0.00 | 0.00 | 47 | 1018.4 |
| 20260902035521 | 21 | 211 | 0.0 | 6.4 | 0.00 | 0.00 | 0.00 | 47 | 1018.3 |
| 20260902035021 | 21 | 198 | 0.0 | 1.6 | 0.00 | 0.00 | 0.00 | 47 | 1018.2 |
| 20260902034521 | 21 | 196 | 0.0 | 0.0 | 0.00 | 0.00 | 0.00 | 47 | 1018.3 |
| 20260902034021 | 21 | 196 | 0.0 | 0.0 | 0.00 | 0.00 | 0.00 | 48 | 1018.2 |
| 20260902033521 | 20 | 196 | 0.0 | 0.0 | 0.00 | 0.00 | 0.00 | 48 | 1018.2 |
| 20260902033021 | 20 | 195 | 0.0 | 0.0 | 0.00 | 0.00 | 0.00 | 47 | 1018.3 |
| 20260902032521 | 20 | 194 | 0.0 | 0.0 | 0.00 | 0.00 | 0.00 | 48 | 1018.2 |
| 20260902032021 | 20 | 194 | 0.0 | 0.0 | 0.00 | 0.00 | 0.00 | 48 | 1018.1 |
| 20260902031521 | 20 | 194 | 0.0 | 0.0 | 0.00 | 0.00 | 0.00 | 50 | 1018.1 |
| 20260902031021 | 20 | 194 | 0.0 | 0.0 | 0.00 | 0.00 | 0.00 | 49 | 1018.0 |
| 20260902030521 | 21 | 194 | 0.0 | 0.0 | 0.00 | 0.00 | 0.00 | 49 | 1018.0 |
| 20260902030021 | 21 | 194 | 0.0 | 0.0 | 0.00 | 0.00 | 0.00 | 49 | 1017.9 |
| 20260902025521 | 21 | 194 | 0.0 | 0.0 | 0.00 | 0.00 | 0.00 | 47 | 1017.8 |
| 20260902025021 | 21 | 194 | 0.0 | 0.0 | 0.00 | 0.00 | 0.00 | 47 | 1017.8 |
| 20260902024521 | 21 | 194 | 0.0 | 0.0 | 0.00 | 0.00 | 0.00 | 47 | 1017.7 |
| 20260902024021 | 22 | 194 | 0.0 | 0.0 | 0.00 | 0.00 | 0.00 | 47 | 1017.6 |
| 20260902023521 | 22 | 194 | 0.0 | 0.0 | 0.00 | 0.00 | 0.00 | 47 | 1017.5 |
| 20260902023021 | 22 | 194 | 0.0 | 0.0 | 0.00 | 0.00 | 0.00 | 46 | 1017.5 |
| 20260902022521 | 22 | 194 | 0.0 | 0.0 | 0.00 | 0.00 | 0.00 | 45 | 1017.4 |
| 20260902022021 | 22 | 194 | 0.0 | 0.0 | 0.00 | 0.00 | 0.00 | 46 | 1017.4 |
| 20260902021521 | 22 | 194 | 0.0 | 0.0 | 0.00 | 0.00 | 0.00 | 44 | 1017.4 |
| 20260902021021 | 23 | 194 | 0.0 | 1.6 | 0.00 | 0.00 | 0.00 | 44 | 1017.4 |
| 20260902020521 | 23 | 194 | 0.0 | 0.0 | 0.00 | 0.00 | 0.00 | 44 | 1017.5 |
| 20260902020021 | 23 | 194 | 0.0 | 6.4 | 0.00 | 0.00 | 0.00 | 44 | 1017.4 |
| 20260902015521 | 23 | 171 | 0.0 | 0.0 | 0.00 | 0.00 | 0.00 | 44 | 1017.5 |
| 20260902015021 | 23 | 171 | 0.0 | 0.0 | 0.00 | 0.00 | 0.00 | 43 | 1017.5 |
| 20260902014521 | 23 | 171 | 0.0 | 0.0 | 0.00 | 0.00 | 0.00 | 43 | 1017.6 |
| 20260902014021 | 23 | 171 | 0.0 | 0.0 | 0.00 | 0.00 | 0.00 | 42 | 1017.5 |
| 20260902013522 | 23 | 171 | 0.0 | 1.6 | 0.00 | 0.00 | 0.00 | 41 | 1017.5 |
| 20260902013021 | 23 | 171 | 0.0 | 1.6 | 0.00 | 0.00 | 0.00 | 41 | 1017.5 |
| 20260902012521 | 23 | 170 | 0.0 | 0.0 | 0.00 | 0.00 | 0.00 | 41 | 1017.6 |
| 20260902012021 | 23 | 170 | 0.0 | 0.0 | 0.00 | 0.00 | 0.00 | 42 | 1017.6 |
| 20260902011521 | 23 | 170 | 0.0 | 6.4 | 0.00 | 0.00 | 0.00 | 41 | 1017.6 |
| 20260902011021 | 23 | 170 | 0.0 | 0.0 | 0.00 | 0.00 | 0.00 | 42 | 1017.5 |
| 20260902010521 | 23 | 170 | 0.0 | 0.0 | 0.00 | 0.00 | 0.00 | 42 | 1017.7 |
| 20260902010021 | 24 | 170 | 0.0 | 6.4 | 0.00 | 0.00 | 0.00 | 42 | 1017.7 |
| 20260902005521 | 24 | 190 | 0.0 | 4.8 | 0.00 | 0.00 | 0.00 | 43 | 1017.7 |
| 20260902005021 | 24 | 190 | 1.6 | 4.8 | 0.00 | 0.00 | 0.00 | 42 | 1017.8 |
| 20260902004521 | 24 | 199 | 1.6 | 8.0 | 0.00 | 0.00 | 0.00 | 42 | 1018.0 |
| 20260902004021 | 24 | 167 | 1.6 | 8.0 | 0.00 | 0.00 | 0.00 | 43 | 1018.1 |
| 20260902003521 | 24 | 179 | 3.2 | 16.1 | 0.00 | 0.00 | 0.00 | 43 | 1018.1 |
| 20260902003021 | 24 | 182 | 3.2 | 8.0 | 0.00 | 0.00 | 0.00 | 42 | 1018.1 |
| 20260902002521 | 24 | 173 | 4.8 | 8.0 | 0.00 | 0.00 | 0.00 | 43 | 1018.2 |
| 20260902002021 | 24 | 161 | 4.8 | 17.7 | 0.00 | 0.00 | 0.00 | 42 | 1018.2 |
| 20260902001521 | 24 | 168 | 3.2 | 11.3 | 0.00 | 0.00 | 0.00 | 42 | 1018.2 |
| 20260902001021 | 25 | 192 | 1.6 | 8.0 | 0.00 | 0.00 | 0.00 | 42 | 1018.3 |
| 20260902000521 | 25 | 207 | 1.6 | 6.4 | 0.00 | 0.00 | 0.00 | 42 | 1018.4 |
| 20260902000021 | 25 | 212 | 4.8 | 12.9 | 0.00 | 0.00 | 0.00 | 42 | 1018.3 |
| 20260901235521 | 25 | 182 | 3.2 | 16.1 | 0.00 | 0.00 | 0.00 | 42 | 1018.5 |
| 20260901235021 | 25 | 158 | 3.2 | 11.3 | 0.00 | 0.00 | 0.00 | 41 | 1018.5 |
| 20260901234521 | 25 | 202 | 3.2 | 9.7 | 0.00 | 0.00 | 0.00 | 40 | 1018.5 |
| 20260901234021 | 25 | 180 | 3.2 | 11.3 | 0.00 | 0.03 | 0.00 | 40 | 1018.5 |
| 20260901233521 | 26 | 188 | 3.2 | 3.2 | 0.00 | 0.03 | 0.00 | 40 | 1018.5 |
| 20260901233021 | 26 | 145 | 3.2 | 11.3 | 0.00 | 0.03 | 0.00 | 38 | 1018.6 |
| 20260901232521 | 26 | 161 | 4.8 | 9.7 | 0.00 | 0.03 | 0.00 | 38 | 1018.6 |
| 20260901232021 | 26 | 180 | 3.2 | 16.1 | 0.00 | 0.03 | 0.00 | 37 | 1018.7 |
| 20260901231521 | 26 | 241 | 3.2 | 9.7 | 0.00 | 0.03 | 0.00 | 32 | 1018.6 |
| 20260901231021 | 26 | 195 | 4.8 | 12.9 | 0.00 | 0.03 | 0.00 | 32 | 1019.0 |
| 20260901230521 | 26 | 193 | 4.8 | 11.3 | 0.00 | 0.03 | 0.00 | 32 | 1019.0 |
| 20260901230021 | 26 | 196 | 4.8 | 14.5 | 0.00 | 0.03 | 0.00 | 32 | 1019.1 |
| 20260901225521 | 26 | 230 | 3.2 | 8.0 | 0.00 | 0.03 | 0.00 | 38 | 1019.2 |
| 20260901225021 | 26 | 242 | 3.2 | 11.3 | 0.00 | 0.03 | 0.00 | 34 | 1019.1 |
| 20260901224521 | 26 | 225 | 3.2 | 9.7 | 0.00 | 0.03 | 0.00 | 35 | 1019.2 |
| 20260901224021 | 25 | 232 | 3.2 | 9.7 | 0.00 | 0.58 | 0.00 | 40 | 1019.4 |
| 20260901223521 | 26 | 158 | 4.8 | 16.1 | 0.00 | 0.58 | 0.00 | 43 | 1019.4 |
| 20260901223021 | 26 | 153 | 4.8 | 9.7 | 0.00 | 0.58 | 0.00 | 43 | 1019.6 |
| 20260901222521 | 26 | 146 | 4.8 | 9.7 | 0.00 | 0.58 | 0.00 | 42 | 1019.6 |
| 20260901222021 | 26 | 232 | 4.8 | 17.7 | 0.00 | 0.58 | 0.00 | 40 | 1019.6 |
| 20260901221521 | 26 | 174 | 4.8 | 11.3 | 0.00 | 0.58 | 0.00 | 39 | 1019.6 |
| 20260901221021 | 27 | 209 | 3.2 | 12.9 | 0.00 | 0.58 | 0.00 | 38 | 1019.8 |
| 20260901220521 | 27 | 219 | 3.2 | 9.7 | 0.00 | 0.58 | 0.00 | 34 | 1019.8 |
| 20260901220021 | 26 | 169 | 3.2 | 11.3 | 0.00 | 0.58 | 0.00 | 35 | 1019.9 |
| 20260901215522 | 26 | 225 | 3.2 | 9.7 | 0.00 | 0.58 | 0.00 | 35 | 1019.9 |
| 20260901215022 | 26 | 223 | 3.2 | 8.0 | 0.00 | 0.58 | 0.00 | 37 | 1020.0 |
| 20260901214522 | 26 | 217 | 4.8 | 14.5 | 0.00 | 0.58 | 0.00 | 38 | 1020.2 |
| 20260901214022 | 26 | 283 | 4.8 | 14.5 | 0.00 | 0.91 | 0.00 | 35 | 1020.1 |
| 20260901213522 | 26 | 250 | 4.8 | 11.3 | 0.00 | 0.91 | 0.00 | 35 | 1020.5 |
| 20260901213022 | 26 | 192 | 4.8 | 12.9 | 0.00 | 0.91 | 0.00 | 37 | 1020.3 |
| 20260901212522 | 26 | 201 | 4.8 | 14.5 | 0.00 | 0.91 | 0.00 | 38 | 1020.7 |